Flag for Italy Weather past 2 weeks in Palermo, Italy

73 °F

Passing clouds.

Feels Like: 74 °F
Forecast: 67 / 76 °F
Wind: 13 mph from West

Location: Palermo / Punta Raisi

Current Time: Oct 7, 2015 at 11:48:29 PM

Latest Report: Oct 7, 2015 at 10:50 PM

Visibility: N/A

Pressure: 29.95 "Hg

Humidity: 78%

Dew point: 66 °F

Location of PalermoLocation

Historic Weather in Palermo — Graph


Palermo temperature yesterday

Maximum temperature yesterday: 86 °F (at 12:50 PM)
Minimum temperature yesterday: 70 °F (at 12:50 AM)
Average temperature yesterday: 79 °F

Past Weeks' High & Low Weather Summary

High86 °F (Oct 6, 12:50 PM)88% (Sep 24, 5:50 AM)30.24 "Hg (Sep 24, 5:50 AM)
Low64 °F (Sep 27, 7:20 AM)32% (Sep 23, 11:50 PM)29.83 "Hg (Sep 23, 4:50 AM)
Average73 °F68%30.02 "Hg
* Reported Sep 22 11:50 PM — Oct 7 10:20 PM, Palermo, Weather by CustomWeather, © 2015

Note: Actual official high and low records may vary slightly from our data, if they occured in-between our weather recording intervals... More about our weather records


Palermo weather history for previous 24 hours

Time TempWeatherWind HumidityBarometerVisibility
10:20 PM
Wed, Oct 7
73 °FPassing clouds.13 mph83%29.95 "HgN/A
9:50 PM73 °FPassing clouds.13 mph83%29.95 "HgN/A
9:20 PM73 °FPassing clouds.14 mph83%29.95 "HgN/A
8:50 PM75 °FPassing clouds.13 mph78%29.95 "HgN/A
8:20 PM73 °FPassing clouds.14 mph83%29.95 "HgN/A
7:50 PM73 °FPassing clouds.14 mph83%29.95 "HgN/A
7:20 PM73 °FPassing clouds.15 mph83%29.92 "HgN/A
6:50 PM75 °FScattered clouds.15 mph74%29.92 "HgN/A
6:20 PM75 °FScattered clouds.15 mph78%29.92 "HgN/A
5:50 PM75 °FScattered clouds.15 mph74%29.92 "HgN/A
5:20 PM75 °FScattered clouds.15 mph78%29.92 "HgN/A
4:50 PM75 °FScattered clouds.15 mph78%29.92 "HgN/A
4:20 PM75 °FScattered clouds.17 mph78%29.92 "HgN/A
3:50 PM75 °FScattered clouds.18 mph78%29.92 "HgN/A
3:20 PM75 °FPassing clouds.20 mph78%29.92 "HgN/A
2:50 PM75 °FPassing clouds.20 mph78%29.92 "HgN/A
2:20 PM75 °FPassing clouds.18 mph78%29.92 "HgN/A
1:50 PM75 °FPassing clouds.18 mph74%29.92 "HgN/A
1:20 PM77 °FPassing clouds.17 mph69%29.92 "HgN/A
12:50 PM77 °FPassing clouds.14 mph69%29.92 "HgN/A
12:20 PM77 °FPassing clouds.14 mph69%29.92 "HgN/A
11:50 AM77 °FPassing clouds.15 mph69%29.92 "HgN/A
11:20 AM77 °FPassing clouds.12 mph69%29.92 "HgN/A
10:50 AM75 °FPassing clouds.20 mph78%29.92 "HgN/A
10:20 AM75 °FScattered clouds.23 mph78%29.92 "HgN/A
9:50 AM75 °FPassing clouds.23 mph83%29.92 "HgN/A
9:20 AM75 °FPassing clouds.16 mph78%29.89 "HgN/A
8:50 AM75 °FPassing clouds.20 mph83%29.89 "HgN/A
8:20 AM75 °FScattered clouds.22 mph78%29.89 "HgN/A
7:50 AM75 °FPassing clouds.17 mph83%29.89 "HgN/A
7:20 AM75 °FPassing clouds.14 mph78%29.89 "HgN/A
6:50 AM75 °FPassing clouds.16 mph78%29.89 "HgN/A
6:20 AM75 °FPassing clouds.14 mph78%29.89 "HgN/A
5:50 AM75 °FPassing clouds.18 mph83%29.89 "HgN/A
5:20 AM75 °FPassing clouds.17 mph78%29.89 "HgN/A
4:50 AM75 °FClear.21 mph78%29.89 "Hg10 mi
4:20 AM75 °FClear.22 mph78%29.89 "Hg10 mi
3:50 AM77 °FClear.22 mph74%29.89 "Hg10 mi
2:50 AM77 °FClear.21 mph69%29.89 "Hg10 mi
2:20 AM77 °FClear.20 mph69%29.89 "Hg10 mi
1:50 AM77 °FClear.15 mph61%29.89 "Hg10 mi
1:20 AM79 °FPassing clouds.12 mph58%29.89 "HgN/A
12:50 AM79 °FClear.16 mph54%29.92 "Hg10 mi
12:20 AM79 °FClear.16 mph54%29.92 "Hg10 mi
11:50 PM
Tue, Oct 6
79 °FClear.16 mph54%29.92 "Hg10 mi
11:20 PM81 °FClear.15 mph48%29.92 "Hg10 mi
Weather by CustomWeather, © 2015

See weather overviewHow to use our weather pages